Tracking 18647 objects as of 30-May-2017
HD Live streaming from Space Station
objects crossing your sky now

COSMOS 2230

Track COSMOS 2230 now!
10-day predictions
COSMOS 2230 is classified as:


NORAD ID: 22307
Int'l Code: 1993-001A
Perigee: 975.9 km
Apogee: 1,012.2 km
Inclination: 82.9 °
Period: 104.8 minutes
Semi major axis: 7365 km
RCS: 1.5931 m2 (large)
Launch date: January 12, 1993
Source: Commonwealth of Independent States (former USSR) (CIS)
Launch site: PLESETSK MISSILE AND SPACE COMPLEX (PKMTR)
Your satellite tracking list
Your tracking list is empty





NASA's NSSDC Master Catalog

Two Line Element Set (TLE):
1 22307U 93001A   17149.62034698 +.00000049 +00000-0 +36854-4 0  9990
2 22307 082.9424 212.1759 0024648 008.8180 099.5491 13.73544107213267
Source of the keplerian elements: AFSPC